User: anonymous
Location: Caltech
(34.1382°N, 118.1253°W)
Time: 19:36:27
(UTC-07:00)
Language:

Saudisat 1A - Orbit

View from above orbital plane
View from above orbital plane
View from above satellite
View from above satellite

Ground track
Ground track

The orbit data is extracted from the following two-line orbital elements,

1 26546U 00057B   14213.38853620  .00001394  00000-0  16745-3 0  3202
2 26546 064.5571 020.2161 0006726 234.5218 125.5263 14.88069356750120
Epoch (UTC): 01 August 2014 09:19:29
Eccentricity: 0.0006726
inclination: 64.5571°
perigee height: 599 km
apogee height: 608 km
right ascension of ascending node: 20.2161°
argument of perigee: 234.5218°
revolutions per day: 14.88069356
mean anomaly at epoch: 125.5263°
orbit number at epoch: 75012

The dashed part of the orbit path shows where the satellite is in the earth's shadow,  

DLR